TimeCST,TemperatureF,Dew PointF,Humidity,Sea Level PressureIn,VisibilityMPH,Wind Direction,Wind SpeedMPH,Gust SpeedMPH,PrecipitationIn,Events,Conditions,WindDirDegrees,DateUTC
12:53 AM,33.1,30.9,92,30.21,9.0,Calm,Calm,-,N/A,,Clear,0,2013-01-08 06:53:00
1:53 AM,34.0,30.9,89,30.19,10.0,Calm,Calm,-,N/A,,Clear,0,2013-01-08 07:53:00
2:53 AM,35.1,32.0,89,30.18,10.0,Calm,Calm,-,N/A,,Clear,0,2013-01-08 08:53:00
3:53 AM,34.0,32.0,92,30.19,9.0,Calm,Calm,-,N/A,,Partly Cloudy,0,2013-01-08 09:53:00
4:53 AM,37.9,34.0,86,30.18,10.0,Calm,Calm,-,N/A,,Overcast,0,2013-01-08 10:53:00
5:53 AM,39.0,33.1,79,30.18,10.0,Calm,Calm,-,N/A,,Overcast,0,2013-01-08 11:53:00
6:53 AM,39.0,34.0,82,30.20,10.0,Calm,Calm,-,N/A,,Overcast,0,2013-01-08 12:53:00
8:53 AM,45.0,36.0,71,30.21,10.0,East,5.8,-,N/A,,Mostly Cloudy,100,2013-01-08 14:53:00
9:53 AM,48.0,37.0,66,30.22,10.0,East,4.6,-,N/A,,Mostly Cloudy,80,2013-01-08 15:53:00
10:53 AM,50.0,37.9,63,30.22,10.0,Variable,4.6,-,N/A,,Overcast,0,2013-01-08 16:53:00
11:53 AM,53.1,39.0,59,30.19,10.0,ESE,4.6,-,N/A,,Mostly Cloudy,120,2013-01-08 17:53:00
12:53 PM,54.0,41.0,62,30.17,10.0,ESE,5.8,-,N/A,,Mostly Cloudy,110,2013-01-08 18:53:00
1:53 PM,55.0,43.0,64,30.13,10.0,Variable,4.6,-,N/A,,Scattered Clouds,0,2013-01-08 19:53:00
2:53 PM,55.9,43.0,62,30.12,10.0,ESE,4.6,-,N/A,,Clear,110,2013-01-08 20:53:00
3:53 PM,55.0,45.0,69,30.13,10.0,ENE,4.6,-,N/A,,Scattered Clouds,60,2013-01-08 21:53:00
4:53 PM,54.0,45.0,72,30.11,10.0,Calm,Calm,-,N/A,,Partly Cloudy,0,2013-01-08 22:53:00
5:53 PM,55.9,46.0,69,30.11,10.0,East,6.9,-,N/A,,Mostly Cloudy,90,2013-01-08 23:53:00
6:53 PM,55.9,46.0,69,30.14,10.0,Calm,Calm,-,N/A,,Overcast,0,2013-01-09 00:53:00
7:53 PM,55.0,46.0,72,30.13,10.0,ENE,5.8,-,0.00,,Overcast,70,2013-01-09 01:53:00
8:53 PM,55.0,46.9,74,30.14,10.0,ESE,3.5,-,N/A,,Overcast,110,2013-01-09 02:53:00
9:53 PM,55.9,46.0,69,30.13,10.0,ESE,5.8,-,N/A,,Overcast,120,2013-01-09 03:53:00
10:30 PM,55.4,46.4,72,30.14,10.0,SE,5.8,-,N/A,,Overcast,140,2013-01-09 04:30:00
11:53 PM,54.0,50.0,86,30.15,10.0,Calm,Calm,-,0.01,Rain,Light Rain,0,2013-01-09 05:53:00